Regional Weather Roundup
Issued by NWS

Home | Current Version | Previous Version | Graphics & Text | Print | Product List | Glossary On
Versions: 1 2 3 4 5 6 7 8 9 10 11 12 13 14 15 16 17 18 19 20 21 22 23 24 25 26 27 28 29 30 31 32 33 34 35 36 37 38 39 40 41 42 43 44 45 46 47 48 49 50
000
ASUS43 KOAX 201210
RWRNE

WEATHER ROUNDUP FOR NEBRASKA
NATIONAL WEATHER SERVICE OMAHA NE
700 AM CDT WED AUG 20 2014

NOTES: SATELLITE DATA IS BEING USED TO AUGMENT CLOUD COVER ABOVE
       12000 FEET.
       "FAIR" INDICATES FEW OR NO CLOUDS BELOW 12,000 FEET WITH NO
       SIGNIFICANT WEATHER AND/OR OBSTRUCTIONS TO VISIBILITY.

  * THESE STATIONS DO NOT REPORT WEATHER SUCH AS RAIN...SNOW OR FOG.

NEZ001>004-019>022-054>056-201300-
NEBRASKA PANHANDLE

CITY           SKY/WX    TMP DP  RH WIND       PRES   REMARKS
SCOTTSBLUFF    CLOUDY    64  58  80 S6        29.83S
6HR MIN TEMP:  64; 6HR MAX TEMP:  69;

ALLIANCE       CLOUDY    63  57  81 CALM      29.82S
6HR MIN TEMP:  62; 6HR MAX TEMP:  68;

CHADRON        CLOUDY    75  52  44 SW10      29.76R
6HR MIN TEMP:  69; 6HR MAX TEMP:  76;

KIMBALL        CLOUDY    62  56  81 CALM      29.87F
SIDNEY         CLOUDY    64  57  78 N3        29.86S
6HR MIN TEMP:  62; 6HR MAX TEMP:  64;

$$

NEZ057>060-069>072-079>082-201300-
SOUTHWEST NEBRASKA

CITY           SKY/WX    TMP DP  RH WIND       PRES   REMARKS
NORTH PLATTE   MOCLDY    73  62  68 S7        29.75S
6HR MIN TEMP:  66; 6HR MAX TEMP:  73; 6HR PCP: TRACE;

IMPERIAL       CLOUDY    67  63  87 CALM      29.79R
6HR MIN TEMP:  66; 6HR MAX TEMP:  68;

LEXINGTON      MOCLDY    71  65  82 S10       29.76S
MCCOOK         CLOUDY    74  64  71 MISG      29.77S
6HR MIN TEMP:  72; 6HR MAX TEMP:  76; 6HR PCP: TRACE;

OGALLALA       MOCLDY    60  60  97 W3        29.79R
$$

NEZ005>010-023>029-035>040-094-201300-
NORTH CENTRAL NEBRASKA

CITY           SKY/WX    TMP DP  RH WIND       PRES   REMARKS
VALENTINE      PTCLDY    64  63  96 NE7       29.76R
6HR MIN TEMP:  62; 6HR MAX TEMP:  76;

AINSWORTH      CLEAR     66  66  98 CALM      29.76R
BROKEN BOW     MOCLDY    67  64  90 CALM      29.75R
6HR MIN TEMP:  67; 6HR MAX TEMP:  74; 6HR PCP: TRACE;

O`NEILL        CLOUDY    71  69  94 SE6       29.77R
ORD            CLOUDY    70  68  93 E3        29.74R
6HR MIN TEMP:  70; 6HR MAX TEMP:  73; 6HR PCP: TRACE;

THEDFORD       MOCLDY    68  62  81 CALM      29.78R
$$

NEZ041-046>049-061>064-073>077-083>087-201300-
SOUTH CENTRAL NEBRASKA

CITY           SKY/WX    TMP DP  RH WIND       PRES   REMARKS
GRAND ISLAND   MOCLDY    74  64  71 S13       29.75F
6HR MIN TEMP:  74; 6HR MAX TEMP:  76;

AURORA         MOCLDY    73  68  84 S10       29.77R
HASTINGS       PTCLDY    70  62  76 S7        29.77F
6HR MIN TEMP:  70; 6HR MAX TEMP:  75;

HEBRON         CLEAR     71  63  75 CALM      29.80R
HOLDREGE       CLOUDY    73  63  69 S12G17    29.78R
KEARNEY *      CLOUDY    72  64  78 S9        29.76S
YORK           MOCLDY    72 N/A N/A S10       29.78R
$$

NEZ011>018-030>034-042>045-201300-
NORTHEAST NEBRASKA

CITY           SKY/WX    TMP DP  RH WIND       PRES   REMARKS
NORFOLK        CLOUDY    71  66  84 E9        29.77F
6HR MIN TEMP:  71; 6HR MAX TEMP:  74; 6HR PCP: TRACE;

ALBION         CLOUDY    72  66  81 E5        29.76R
BLAIR          CLOUDY    74  69  85 NE3       29.80R
COLUMBUS *     MOCLDY    73  66  78 S5        29.78R
FREMONT        CLOUDY    75  69  80 NE8       29.79R
TEKAMAH        LGT RAIN  72  68  87 NE14      29.81R
6HR MIN TEMP:  69; 6HR MAX TEMP:  72; 6HR PCP:  0.01;

WAYNE          DRIZZLE   69  67  93 SE12      29.78S
$$

NEZ050>053-065>068-078-088>093-201300-
SOUTHEAST NEBRASKA

CITY           SKY/WX    TMP DP  RH WIND       PRES   REMARKS
LINCOLN        MOCLDY    77  66  68 S12       29.78R
6HR MIN TEMP:  74; 6HR MAX TEMP:  80;

OMAHA EPPLEY   CLOUDY    75  68  78 SE7       29.79R
6HR MIN TEMP:  74; 6HR MAX TEMP:  76;

BEATRICE       PTCLDY    73  67  81 S5        29.81R
FALLS CITY     MOCLDY    70  68  93 SE3       29.81R
6HR MIN TEMP:  70; 6HR MAX TEMP:  75;

NEBRASKA CITY  CLOUDY    73  70  88 S6        29.81R
PLATTSMOUTH    CLOUDY    73  69  87 SE5       29.79R
$$

NEZ044-045-051>053-067-201300-
OMAHA AREA

CITY           SKY/WX    TMP DP  RH WIND       PRES   REMARKS
OMAHA EPPLEY   CLOUDY    75  68  78 SE7       29.79R
6HR MIN TEMP:  74; 6HR MAX TEMP:  76;

BLAIR          CLOUDY    74  69  85 NE3       29.80R
FREMONT        CLOUDY    75  69  80 NE8       29.79R
MILLARD        CLOUDY    73  70  88 SE3       29.78R
OFFUTT AFB     CLOUDY    74  73  99 E3        29.79R
PLATTSMOUTH    CLOUDY    73  69  87 SE5       29.79R
WAHOO          FAIR      71  67  88 SE5       29.77R
$$


USA.gov is the U.S. government's official web portal to all federal, state and local government web resources and services.